DateTimeUTC,F1_A11,F1_S11,BsB_S11,BsG_S11,BsR_S11,BbsB_S11,BbsG_S11,BbsR_S11,BaB_A11,BaG_A11,BaR_A11,Tu_S11,T_S11,Uu_S11,U_S11,P_S11,T1_A11
2021-09-10T03:00:00Z,00000200,21000000,,,,,,,0000.04,0000.44,0000.13,18.6,25.8,,00.0,0662.0,31.1
2021-09-10T03:01:00Z,00000200,21000000,,,,,,,0000.08,-000.06,0000.30,18.6,25.8,,00.0,0662.0,31.1
2021-09-10T03:02:00Z,00000200,21000000,,,,,,,0000.26,0000.38,-000.08,18.6,25.8,,00.0,0662.0,31.1
2021-09-10T03:03:00Z,00000200,61000000,,,,,,,0000.35,0000.52,0000.36,18.6,25.8,,00.0,0662.0,31.1
2021-09-10T03:04:00Z,00000200,41000000,0000.75,0000.74,0000.53,0000.25,-000.10,0000.29,0000.36,-000.02,0000.31,19.1,25.8,,00.0,0662.9,31.1
2021-09-10T03:05:00Z,00000200,01000000,0001.33,0000.91,0000.56,0000.55,0000.05,-000.07,0000.32,0000.33,0000.06,19.2,25.8,,00.0,0663.0,31.1
2021-09-10T03:06:00Z,00000200,01000000,0000.02,0000.26,0000.59,0000.30,-000.07,-000.03,0000.40,-000.13,0000.07,19.3,25.8,,00.0,0663.0,31.1
2021-09-10T03:07:00Z,00000200,01000000,0001.16,0000.47,0000.59,-000.44,-000.14,0000.04,0000.19,0000.30,0000.35,19.3,25.8,,00.0,0663.0,31.1
2021-09-10T03:08:00Z,00000200,01000000,0001.49,0000.69,0000.75,0000.03,0000.02,0000.14,0000.15,0000.19,-000.29,19.2,25.8,,00.0,0663.1,31.1
2021-09-10T03:09:00Z,00000200,01000000,0000.36,0000.58,0000.67,-000.05,-000.21,0000.14,0000.14,-000.08,0000.42,19.1,25.7,,00.0,0663.1,31.1
2021-09-10T03:10:00Z,00000200,01000000,0000.89,0000.59,0000.97,0000.37,-000.06,0000.47,0000.19,0000.10,-000.06,19.0,25.7,,00.0,0663.1,31.0
2021-09-10T03:11:00Z,00000200,01000000,0000.99,0000.78,0000.83,0000.62,0000.30,0000.30,0000.18,0000.04,-000.06,18.9,25.6,,00.0,0663.0,31.0
2021-09-10T03:12:00Z,00000200,01000000,0000.87,0000.82,0000.58,0000.04,-000.18,0000.00,0000.46,0000.62,0000.52,18.8,25.5,,00.0,0663.0,31.0
2021-09-10T03:13:00Z,00000200,01000000,0000.55,0000.73,0000.37,0000.53,-000.30,0000.13,0000.38,0000.79,0000.27,18.8,25.5,,00.0,0663.1,31.0
2021-09-10T03:14:00Z,00000200,01000000,0000.58,0000.74,0000.98,0000.36,-000.22,0000.27,0000.30,0000.12,0000.46,18.8,25.5,,00.0,0663.1,31.0
2021-09-10T03:15:00Z,00000200,01000000,0000.86,0000.72,0000.45,0000.13,0000.02,-000.09,0000.52,0000.19,0000.43,18.9,25.5,,00.0,0663.1,31.0
2021-09-10T03:16:00Z,00000200,01000000,0000.28,0000.65,0000.73,0000.11,-000.10,0000.21,0000.52,0000.46,0000.06,19.0,25.6,,00.0,0663.1,31.0
2021-09-10T03:17:00Z,00000200,01000000,0000.79,0000.55,0000.72,0000.18,-000.25,0000.18,-000.04,0000.25,0000.28,19.0,25.6,,00.0,0663.2,31.1
2021-09-10T03:18:00Z,00000200,01000000,0000.88,0000.67,0000.57,0000.34,-000.20,0000.11,0000.33,0000.23,0000.07,19.1,25.7,,00.0,0663.2,31.1
2021-09-10T03:19:00Z,00000200,01000000,0000.73,0000.67,0000.67,0000.44,0000.10,-000.07,0000.30,0000.20,0000.21,19.1,25.7,,00.0,0663.2,31.1
2021-09-10T03:20:00Z,00000200,01000000,0001.03,0000.49,0000.50,-000.18,-000.02,0000.13,0000.32,0000.52,0000.06,19.2,25.7,,00.0,0663.2,31.1
2021-09-10T03:21:00Z,00000200,01000000,0001.25,0000.68,0000.82,0000.46,-000.03,0000.08,-000.19,0000.08,0000.30,19.3,25.7,,00.0,0663.2,31.1
2021-09-10T03:22:00Z,00000200,01000000,0000.96,0001.26,0000.33,0000.34,0000.26,0000.23,0000.56,0000.17,0000.19,19.3,25.8,,00.0,0663.2,31.1
2021-09-10T03:23:00Z,00000200,01000000,0000.31,0000.78,0000.66,0000.26,-000.07,0000.31,-000.18,-000.48,-000.41,19.2,25.8,,00.0,0663.2,31.1
2021-09-10T03:24:00Z,00000200,01000000,0000.64,0000.50,0000.62,0000.58,-000.41,0000.25,0000.03,0000.15,0000.02,19.1,25.7,,00.0,0663.2,31.0
2021-09-10T03:25:00Z,00000200,01000000,0001.67,0000.63,0000.78,0000.25,0000.00,0000.06,0000.08,0000.04,0000.06,19.0,25.7,,00.0,0663.2,31.0
2021-09-10T03:26:00Z,00000200,01000000,0000.87,0000.43,0000.81,0000.50,-000.05,0000.35,0000.14,-000.04,-000.21,18.9,25.6,,00.0,0663.1,31.0
2021-09-10T03:27:00Z,00000200,01000000,0001.72,0000.59,0001.07,0000.14,-000.07,0000.35,0000.41,0000.12,0000.45,18.8,25.5,,00.0,0663.1,31.0
2021-09-10T03:28:00Z,00000200,01000000,0000.95,0000.42,0000.69,0000.54,0000.13,0000.22,-000.04,0000.55,0000.47,18.8,25.5,,00.0,0663.1,31.0
2021-09-10T03:29:00Z,00000200,01000000,0000.87,0000.53,0000.96,0000.31,0000.03,0000.36,0000.32,0000.18,-000.07,18.9,25.5,,00.0,0663.1,31.1
2021-09-10T03:30:00Z,00000200,01000000,0001.19,0000.29,0001.04,0000.57,-000.22,0000.50,0000.69,0000.27,0000.34,18.9,25.6,,00.0,0663.1,31.0
2021-09-10T03:31:00Z,00000200,01000000,0001.38,0001.17,0000.38,0000.09,0000.14,-000.10,-000.28,0000.37,0000.46,19.0,25.6,,00.0,0663.1,31.0
2021-09-10T03:32:00Z,00000200,01000000,0001.50,0000.79,0000.33,0000.25,-000.04,0000.23,0000.35,0000.23,0000.25,19.0,25.6,,00.0,0663.1,31.0
2021-09-10T03:33:00Z,00000200,01000000,0001.53,0000.44,0001.00,0000.35,-000.12,0000.04,0000.37,0000.33,-000.07,19.1,25.7,,00.0,0663.1,31.1
2021-09-10T03:34:00Z,00000200,01000000,0000.76,0000.57,0000.60,0000.16,0000.16,0000.39,0000.07,-000.06,0000.25,19.2,25.7,,00.0,0663.1,31.1
2021-09-10T03:35:00Z,00000200,01000000,0001.20,0000.85,0000.75,0000.53,-000.25,0000.29,0000.42,0000.38,0000.20,19.2,25.7,,00.0,0663.1,31.1
2021-09-10T03:36:00Z,00000200,01000000,0000.47,0000.54,0000.88,0000.48,0000.24,0000.25,0000.30,0000.46,0000.24,19.3,25.7,,00.0,0663.1,31.1
2021-09-10T03:37:00Z,00000200,01000000,0000.54,0000.43,0000.78,0000.25,-000.09,0000.22,0000.23,-000.11,-000.04,19.3,25.8,,00.0,0663.1,31.1
2021-09-10T03:38:00Z,00000200,01000000,0001.15,0000.58,0000.65,-000.33,0000.06,0000.18,-000.15,0000.33,0000.38,19.4,25.8,,00.0,0663.1,31.1
2021-09-10T03:39:00Z,00000200,01000000,0001.76,0000.70,0000.80,-000.06,0000.13,-000.12,-000.21,-000.05,-000.35,19.3,25.8,,00.0,0663.2,31.1
2021-09-10T03:40:00Z,00000200,01000000,0001.10,0000.66,0000.60,0000.31,0000.15,0000.15,0000.20,-000.44,-000.04,19.2,25.7,,00.0,0663.2,31.1
2021-09-10T03:41:00Z,00000200,01000000,0001.14,0000.91,0000.50,0000.60,-000.07,0000.25,-000.10,0000.51,-000.24,19.1,25.7,,00.0,0663.1,31.0
2021-09-10T03:42:00Z,00000200,01000000,0001.43,0000.69,0000.63,0000.56,-000.11,0000.16,0000.44,0000.08,0000.44,19.1,25.7,,00.0,0663.1,31.0
2021-09-10T03:43:00Z,00000200,01000000,0000.62,0001.02,0001.02,0000.31,0000.32,0000.46,0000.24,0000.22,0000.20,19.0,25.6,,00.0,0663.1,31.0
2021-09-10T03:44:00Z,00000200,01000000,0001.33,0000.83,0000.44,0000.82,-000.14,0000.21,0000.27,0000.39,0000.47,19.1,25.7,,00.0,0663.1,31.1
2021-09-10T03:45:00Z,00000200,01000000,0000.12,0000.79,0000.63,-000.05,0000.07,0000.22,0000.84,0000.60,0000.17,19.1,25.7,,00.0,0663.2,31.1
2021-09-10T03:46:00Z,00000200,01000000,0000.69,0000.75,0000.95,-000.24,-000.11,0000.14,0000.19,0000.12,0000.15,19.2,25.7,,00.0,0663.2,31.1
2021-09-10T03:47:00Z,00000200,01000000,0001.49,0000.97,0000.76,0000.30,-000.22,0000.09,-000.00,0000.18,0000.36,19.2,25.7,,00.0,0663.2,31.1
2021-09-10T03:48:00Z,00000200,01000000,0001.08,0000.86,0000.74,0000.12,-000.17,0000.17,0000.33,0000.22,-000.02,19.3,25.8,,00.0,0663.2,31.1
2021-09-10T03:49:00Z,00000200,01000000,0001.20,0000.48,0000.51,0000.22,0000.10,0000.15,0000.56,0000.52,0000.45,19.4,25.8,,00.0,0663.2,31.1
2021-09-10T03:50:00Z,00000200,01000000,0000.96,0000.65,0000.66,0000.49,0000.18,0000.21,-000.00,0000.43,0000.33,19.4,25.9,,00.0,0663.2,31.1
2021-09-10T03:51:00Z,00000200,01000000,0001.45,0000.41,0000.81,0000.16,0000.26,0000.34,0000.32,0000.05,0000.03,19.5,25.9,,00.0,0663.2,31.1
2021-09-10T03:52:00Z,00000200,01000000,0001.24,0000.58,0000.88,0000.56,-000.12,0000.45,0000.19,0000.39,0000.10,19.5,25.9,,00.0,0663.2,31.1
2021-09-10T03:53:00Z,00000200,01000000,0000.73,0000.44,0000.96,0000.55,-000.19,0000.34,0000.44,0000.14,0000.29,19.5,25.9,,00.0,0663.2,31.1
2021-09-10T03:54:00Z,00000200,01000000,0000.93,0000.38,0000.54,0000.72,-000.29,-000.09,0000.31,0000.17,0000.06,19.4,25.9,,00.0,0663.2,31.1
2021-09-10T03:55:00Z,00000200,01000000,0000.77,0000.69,0000.61,0000.31,0000.16,0000.28,0000.03,-000.45,-000.52,19.3,25.8,,00.0,0663.1,31.1
2021-09-10T03:56:00Z,00000200,01000000,0000.45,0000.48,0000.90,0000.42,0000.08,0000.08,-000.11,0000.21,0000.44,19.2,25.8,,00.0,0663.1,31.0
2021-09-10T03:57:00Z,00000200,41000000,,,,,,,0000.75,0000.27,0000.59,19.2,25.8,,00.0,0663.2,31.0
2021-09-10T03:58:00Z,00000200,61000000,,,,,,,-000.19,0000.35,-000.06,18.8,25.8,,00.0,0662.2,31.0
2021-09-10T03:59:00Z,00000200,21000000,,,,,,,0000.09,0000.12,0000.13,18.8,25.9,,00.0,0662.1,31.0
